CAPE
966 1643 2823 2928 2932 3075 3059 3083 2743 2633 2320 2341 2377 2643 2556 2327 1370 1831 1835 1947 1947 1917 1838 1507 1366 1133 1366 1354 1377 1179 1108 659 910 820 996 848 1078 962 784 552 708 317 181
935 1533 2863 3002 3089 3165 3113 3087 3008 2795 2582 2489 2534 2423 2477 2160 1750 1267 1530 1915 1850 1776 1636 1589 1654 1634 1652 1690 1520 1174 834 956 1153 636 1345 586 360 573 682 678 1113 609 405
1033 1635 1978 3049 3070 2902 3179 3331 3047 2710 2505 2331 2390 2261 2278 1919 1749 1400 1409 402 653 952 1644 1645 1590 1593 1736 1710 1171 783 521 1162 1204 865 1093 198 180 557 789 759 355 236 261
1019 1329 1845 3159 3115 2924 3114 3071 3091 2846 2509 2471 2497 2080 2131 2247 1766 1702 1663 507 350 664 1417 1561 1612 1720 1673 1220 1204 1022 829 899 1102 1160 697 433 141 849 879 1057 620 656 672
1298 1193 2254 3315 3084 2680 2792 2994 3017 2980 2827 2643 2425 2262 2119 1851 1444 1442 1484 1497 1211 1392 482 1327 1381 1336 1496 1233 1451 1027 1183 1206 1067 945 801 550 234 914 1017 1115 483 25 355
1667 1312 2729 3087 2718 2680 2608 2926 2783 2483 2920 2733 2363 1996 1831 1709 1563 1564 1504 1308 1089 1358 1010 958 1143 1341 1143 1533 1423 1368 1430 1332 1123 1037 499 1250 588 1313 1098 633 357 707 294
1901 1522 2267 3090 2718 2457 2416 2469 2445 2527 2431 2313 2273 2143 1951 1902 1838 1778 1731 1541 1370 1275 1453 1485 1192 1385 1493 1773 1497 1586 1568 1457 1131 1273 583 397 1101 1434 445 286 149 715 809
2112 1819 1975 2872 2692 2337 2218 2215 2201 2168 2166 2147 2102 2098 2048 1988 1916 1731 1752 1531 1590 1487 1368 1585 1166 1270 1822 1756 1281 1736 1716 1611 1139 843 509 541 1116 1581 615 252 495 328 668
2054 2316 2360 2121 2477 2391 2272 2219 2222 2141 2085 2150 2253 2371 2101 2024 1650 1665 1615 1624 1505 1383 1429 1358 1637 1286 1367 1713 1418 1517 1712 1284 934 1087 555 530 1257 1557 1183 1058 916 341 769
2444 2350 2209 2661 2295 2306 1823 2598 2457 2441 2156 2092 1979 2173 1986 1667 1600 1841 1992 2041 1606 1226 1221 1284 1331 1604 1799 2025 1947 1786 1659 1492 644 797 704 591 1606 1035 733 781 717 709 437
2287 2478 2450 2676 3157 2919 2505 2306 2944 2171 1926 2308 2059 1971 2147 1931 1555 1511 1634 1979 1471 1379 1030 1294 1360 1720 1641 1722 1910 1643 1277 572 294 697 867 1389 1538 1413 670 949 1222 1364 458
1960 2396 2533 2313 2508 2632 1736 2620 2176 2010 1686 2078 2155 2172 1583 665 888 591 1314 1543 1346 1487 1330 1191 1356 1660 1402 1213 1683 1498 944 653 668 735 1133 1621 1828 1846 1620 1678 1566 1462 763
1836 2270 2613 2762 2504 2284 2510 2151 1929 1970 1398 1452 1503 1967 1214 947 203 877 924 1377 1596 1649 1389 1490 1339 1138 1128 964 1205 1130 810 752 704 956 1031 1894 1961 1819 1524 1944 1967 1422 1103
1690 1832 1960 2852 2911 2899 1656 1096 2434 1309 339 30 1277 1947 1308 1102 1418 1033 1583 1850 1548 1987 1510 462 33 369 837 1224 1420 889 1146 789 531 512 1401 2106 1999 1865 1837 2026 2262 1889 1544
1948 2149 2533 2967 3498 3156 2652 2083 2473 1557 410 435 896 2250 2152 1725 1792 1802 927 1013 1058 1792 1649 618 0 0 632 1582 1557 1159 1061 786 1183 1239 1705 1941 1599 1874 1851 1879 2021 1814 1917
69 90 193 2499 2862 2437 2087 1982 1602 1710 1745 1040 944 1111 1382 1348 1263 1105 232 334 466 1343 762 902 712 467 845 1952 1969 1336 1016 1201 1196 1287 1271 1295 1738 1721 2036 2315 2313 2271 2048
0 0 76 213 1873 2054 2264 1553 1902 1533 1409 599 437 627 1486 1142 867 689 235 414 489 72 3 90 808 1346 1257 1744 1975 922 1771 1674 1419 1490 987 1209 1365 2114 2335 2266 2408 2176 2125
0 0 0 92 1603 1546 2253 2556 2455 2015 1126 754 607 769 540 748 770 492 338 1081 341 178 7 0 699 1130 1681 1501 1570 1746 765 1167 1684 1224 1510 1351 1318 1011 1692 2078 1973 2038 2090
67 1 0 495 1312 1352 1685 1964 2015 561 487 589 771 340 113 121 336 442 1208 1330 1639 930 258 91 1962 1562 1879 1806 1506 843 706 1603 1939 1144 1171 946 1356 1196 1312 1473 1392 1186 1660
66 115 194 1605 745 608 1658 1946 438 171 37 79 237 206 183 491 524 1085 1378 1683 2137 1968 1494 1036 1570 1286 1095 1304 1440 1092 1380 1410 1433 1145 979 892 693 1169 1419 1018 775 675 1139
729 1837 863 548 332 1312 2263 2217 346 200 63 19 111 86 184 331 761 1060 777 1390 1502 1835 1457 1472 1254 1177 1692 1312 1197 1059 1050 1315 1275 1175 944 768 365 1032 659 515 1058 1097 1217
1340 1178 1437 761 2038 2624 2999 2955 1376 321 152 138 34 126 178 464 719 1578 1260 806 663 1329 1289 1395 1419 1622 1584 1535 973 955 737 866 999 746 395 685 426 775 781 866 610 527 203
1384 1253 992 1511 2382 3250 2773 1798 1445 1270 166 166 139 338 438 739 700 641 978 1283 1391 1622 1377 1753 1971 1582 1417 1699 1537 1005 809 767 768 810 388 302 681 577 1007 818 559 70 78
1744 1545 2376 2742 2730 3253 3103 1894 2144 2016 1710 1347 1817 1238 1022 1407 1243 1266 1379 1275 1152 1671 1855 1542 1665 1599 1472 1188 1402 878 676 691 778 402 226 495 393 625 716 773 764 181 3
1527 2023 1882 2972 3099 2778 2962 2988 2407 2445 2448 1863 1998 1713 1770 811 839 709 847 1342 1565 1693 1877 1970 2179 1925 1662 1083 1252 1020 756 598 734 810 384 527 73 69 105 200 91 565 39
1805 1982 1613 3056 3299 3115 2798 3073 2743 2773 2604 1909 1636 1611 1398 1503 749 1300 845 993 1185 1387 1630 1774 1330 1259 1538 1434 1162 1188 950 799 769 811 606 298 5 7 3 10 7 27 37
CIN
-68 -61 -0 -0 -0 -0 -0 -0 -0 -0 -0 -0 -0 -0 -0 -0 -37 -14 -0 -0 -0 -0 -0 -0 -0 -0 -0 -0 -0 -0 -1 -11 -10 -7 -0 -5 -0 -0 -1 -3 -1 -9 -12
-92 -65 -0 -0 -0 -0 -0 -0 -0 -1 -0 -0 -0 -2 -0 -2 -24 -33 -10 -0 -0 -0 -0 -0 -0 -0 -0 -0 -0 -0 -2 -4 -0 -20 -0 -15 -14 -0 -2 -1 -2 -1 -1
-81 -68 -34 -0 -0 -0 -0 -0 -1 -2 -2 -2 -3 -2 -1 -11 -9 -17 -3 -69 -46 -19 -0 -0 -0 -0 -0 -0 -0 -1 -28 -7 -0 -5 -1 -34 -41 -8 -1 -2 -18 -23 -11
-79 -71 -49 -0 -0 -0 -0 -0 -0 -0 -1 -2 -1 -3 -2 -1 -13 -0 -2 -58 -76 -32 -7 -1 -0 -0 -0 -0 -0 -0 -18 -10 -4 -10 -21 -2 -42 -3 -2 -0 -3 -1 -5
-32 -60 -42 -0 -0 -1 -0 -0 -0 -0 -0 -0 -0 -0 -0 -5 -21 -16 -0 -4 -23 -10 -48 -6 -2 -0 -0 -0 -0 -7 -16 -21 -27 -25 -4 -19 -50 -18 -1 -0 -8 -7 -6
-14 -77 -32 -0 -1 -0 -0 -0 -0 -1 -0 -0 -0 -2 -4 -4 -18 -8 -7 -5 -18 -8 -14 -13 -4 -0 -0 -0 -0 -6 -21 -19 -36 -48 -39 -31 -56 -13 -4 -0 -2 -0 -4
-42 -103 -56 -0 -0 -0 -0 -0 -0 -0 -0 -0 -0 -0 -2 -3 -5 -5 -1 -0 -1 -5 -1 -5 -6 -1 -0 -0 -0 -5 -20 -23 -32 -23 -27 -64 -43 -9 -27 -22 -26 -0 -0
-29 -59 -69 -1 -0 -0 -0 -0 -0 -0 -0 -0 -0 -0 -0 -2 -2 -8 -2 -7 -0 -0 -1 -2 -3 -1 -0 -0 -1 -1 -25 -29 -10 -33 -31 -61 -61 -16 -32 -31 -10 -18 -0
-2 -48 -38 -16 -2 -0 -0 -0 -0 -0 -0 -0 -0 -0 -0 -0 -4 -6 -14 -7 -5 -1 -0 -3 -1 -4 -1 -0 -0 -3 -19 -33 -34 -34 -27 -87 -54 -30 -15 -3 -0 -18 -0
-11 -25 -33 -2 -0 -0 -6 -0 -0 -0 -0 -0 -0 -0 -2 -3 -2 -0 -2 -1 -3 -2 -2 -0 -0 -0 -0 -0 -0 -0 -14 -25 -45 -22 -28 -63 -46 -49 -38 -13 -2 -0 -3
-12 -9 -4 -4 -3 -1 -1 -1 -0 -0 -1 -0 -0 -0 -0 -1 -13 -2 -6 -6 -8 -5 -13 -4 -0 -0 -2 -0 -0 -0 -9 -59 -34 -26 -46 -71 -43 -41 -43 -12 -0 -0 -2
-12 -15 -15 -11 -8 -2 -0 -13 -3 -3 -3 -0 -2 -5 -18 -79 -75 -90 -9 -8 -15 -9 -13 -11 -7 -0 -0 -1 -0 -1 -34 -48 -29 -56 -51 -60 -36 -31 -21 -0 -0 -0 -0
-2 -23 -30 -6 -34 -13 -9 -37 -17 -2 -32 -40 -19 -15 -17 -89 -158 -6 -43 -21 -7 -4 -2 -6 -4 -15 -8 -21 -14 -38 -44 -36 -19 -28 -24 -55 -46 -25 -29 -0 -0 -0 -0
-0 -63 -37 -26 -21 -18 -69 -71 -4 -81 -153 -12 -44 -13 -30 -80 -42 -35 -27 -24 -17 -10 -22 -123 -200 -104 -42 -31 -25 -33 -19 -17 -36 -68 -62 -40 -52 -41 -33 -11 -0 -0 -0
-2 -32 -9 -16 -3 -3 -9 -20 -26 -88 -70 -15 -22 -5 -4 -10 -14 -16 -58 -73 -76 -14 -23 -72 -16 -0 -41 -38 -27 -37 -34 -41 -40 -39 -64 -39 -45 -40 -35 -30 -2 -0 -0
-45 -219 -36 -5 -16 -13 -27 -25 -24 -20 -20 -42 -45 -24 -9 -13 -29 -29 -150 -115 -149 -23 -48 -27 -50 -20 -45 -11 -19 -35 -40 -30 -42 -37 -91 -70 -37 -46 -38 -18 -7 -0 -0
-0 -0 -293 -171 -15 -12 -8 -21 -12 -7 -9 -60 -83 -27 -2 -15 -28 -60 -124 -126 -126 -218 -123 -203 -35 -51 -50 -28 -18 -38 -22 -20 -25 -33 -67 -71 -53 -43 -46 -27 -12 -13 -7
-79 -0 -0 -202 -2 -4 -2 -0 -0 -2 -4 -56 -73 -19 -31 -10 -20 -47 -72 -47 -72 -137 -111 -0 -38 -48 -34 -36 -33 -32 -94 -21 -27 -48 -35 -42 -81 -47 -58 -44 -37 -24 -16
-432 -79 -0 -97 -11 -9 -2 -6 -1 -24 -23 -11 -3 -31 -67 -45 -22 -39 -12 -12 -39 -42 -53 -10 -15 -21 -14 -15 -32 -92 -86 -42 -22 -6 -36 -51 -48 -44 -54 -58 -49 -31 -15
-403 -505 -206 -19 -42 -82 -5 -3 -50 -27 -13 -28 -7 -20 -27 -12 -17 -3 -13 -8 -7 -10 -15 -34 -18 -29 -31 -19 -12 -17 -41 -31 -43 -44 -30 -25 -48 -22 -36 -86 -72 -91 -34
-239 -84 -137 -163 -149 -48 -0 -0 -51 -4 -31 -79 -5 -25 -26 -26 -14 -16 -23 -20 -15 -7 -10 -17 -23 -20 -8 -21 -10 -29 -29 -27 -18 -30 -38 -37 -26 -38 -74 -46 -55 -42 -53
-233 -199 -73 -125 -3 -3 -0 -0 -7 -58 -78 -80 -123 -80 -70 -43 -48 -9 -10 -26 -37 -17 -19 -25 -15 -7 -6 -15 -14 -10 -6 -18 -24 -26 -96 -41 -40 -63 -57 -41 -97 -130 -179
-225 -172 -121 -70 -12 -0 -1 -17 -5 -14 -111 -85 -99 -86 -63 -41 -55 -32 -11 -13 -4 -8 -16 -14 -6 -1 -3 -3 -4 -4 -1 -2 -20 -39 -108 -87 -62 -109 -36 -77 -112 -213 -199
-159 -101 -9 -2 -11 -0 -2 -10 -4 -11 -7 -16 -2 -19 -28 -12 -13 -4 -4 -12 -15 -8 -5 -6 -6 -3 -4 -4 -2 -15 -25 -18 -2 -14 -33 -39 -62 -37 -66 -37 -64 -134 -104
-152 -43 -38 -6 -1 -2 -3 -3 -4 -0 -1 -0 -1 -0 -4 -23 -3 -5 -12 -3 -1 -1 -1 -0 -0 -0 -2 -2 -1 -1 -8 -14 -14 -5 -11 -4 -14 -30 -58 -54 -72 -10 -78
-88 -61 -62 -3 -0 -0 -0 -4 -0 -0 -0 -0 -0 -3 -8 -13 -13 -4 -3 -2 -0 -1 -0 -0 -7 -4 -1 -1 -5 -2 -3 -5 -12 -6 -8 -5 -7 -0 -0 -59 -66 -60 -58
Wind_Speed
17 15 13 13 12 12 12 11 12 13 13 12 11 11 11 10 10 10 8 9 9 8 8 8 6 7 9 10 10 9 9 9 12 12 11 14 12 11 8 6 9 13 12
19 16 14 14 13 13 12 11 12 12 13 13 12 11 10 10 9 8 9 10 10 8 6 6 5 8 10 10 10 9 8 8 9 12 15 13 13 10 10 13 18 12 11
19 16 15 14 13 13 12 11 11 11 12 12 11 12 9 9 9 7 10 7 7 6 5 5 5 7 8 10 10 8 7 5 6 8 12 9 9 11 11 12 14 12 11
17 16 15 13 14 13 12 11 11 12 11 10 10 11 10 7 6 7 9 7 5 4 5 6 5 6 7 6 9 8 6 5 5 7 6 6 11 11 11 12 11 10 13
19 17 15 15 14 14 13 11 10 10 12 10 10 11 10 8 6 4 6 7 4 2 5 4 5 6 7 7 7 6 5 6 6 7 3 6 8 11 10 10 10 8 5
20 18 17 15 14 14 13 12 11 11 11 11 11 11 10 8 6 3 2 3 3 3 3 3 3 6 7 8 7 6 6 5 6 7 4 11 9 12 11 6 11 9 10
19 17 16 14 13 12 12 12 12 11 11 11 10 10 9 8 7 5 4 2 3 3 4 5 4 6 7 8 8 7 7 7 7 5 3 10 9 11 10 8 9 9 8
19 17 15 15 13 12 11 11 11 11 11 11 10 10 9 7 6 5 4 3 2 3 4 6 7 6 7 8 8 7 9 9 8 7 9 9 13 13 12 9 9 8 7
19 16 14 12 12 14 13 12 11 10 9 10 11 11 9 7 7 6 5 5 3 3 3 5 7 7 8 9 9 8 10 10 6 6 8 8 12 14 11 9 10 8 7
15 15 14 12 10 10 10 13 13 12 11 10 10 10 10 8 8 8 6 6 5 4 3 3 4 6 8 9 9 9 9 10 7 5 2 7 14 14 13 10 9 8 7
10 11 12 10 7 9 10 11 12 12 10 9 9 9 9 8 8 7 9 10 9 7 6 4 5 6 8 9 10 10 9 5 7 3 3 14 13 14 13 10 9 10 8
15 16 13 12 11 9 9 10 10 11 8 7 8 8 6 7 8 11 5 9 9 8 7 7 5 6 8 7 6 9 5 9 7 3 3 14 14 14 13 11 10 10 9
8 12 12 8 8 11 5 5 6 6 2 0 4 7 4 5 12 14 8 4 4 8 4 6 6 5 9 6 6 7 9 9 4 1 7 16 15 13 14 10 11 11 11
8 13 8 11 8 5 9 8 2 6 8 2 8 4 3 3 4 8 4 3 1 1 1 2 1 6 11 7 7 9 7 6 2 5 10 16 16 16 15 13 11 12 12
9 9 10 9 5 3 3 4 3 4 9 12 9 3 3 3 2 3 2 0 0 2 2 3 3 11 7 7 6 7 6 6 5 1 3 12 14 16 15 15 13 13 14
30 23 19 7 6 6 4 2 3 4 6 3 4 3 2 0 0 1 1 2 1 3 5 5 7 13 11 6 6 7 6 5 5 3 4 7 15 15 15 15 15 15 15
21 12 16 9 6 5 4 3 1 1 4 4 3 3 5 4 3 3 2 2 4 4 9 10 11 6 5 5 4 5 3 3 4 5 6 6 8 15 16 16 16 16 15
11 8 18 5 4 4 4 2 1 1 3 2 1 2 0 3 3 3 4 3 4 3 4 10 10 4 4 4 3 3 2 8 6 5 4 4 6 6 12 17 17 16 15
2 7 15 2 1 4 4 5 3 5 3 2 1 1 2 5 5 4 4 5 4 5 9 13 6 4 4 4 4 5 5 5 4 7 6 6 6 7 5 13 15 10 14
14 9 10 3 4 4 2 5 4 3 3 3 1 2 3 3 5 6 5 6 4 4 4 4 5 4 5 6 5 5 5 6 5 5 5 5 6 7 5 6 8 10 22
14 7 4 5 6 6 4 6 3 2 3 2 3 5 4 4 5 5 5 4 5 4 5 6 5 5 4 3 2 4 4 7 7 6 7 7 6 8 6 5 7 6 7
6 6 7 6 7 5 5 3 5 5 2 2 2 4 3 4 5 4 4 4 5 4 5 5 4 3 2 2 3 1 3 4 7 8 2 5 4 6 9 3 5 5 6
3 4 3 7 5 5 5 7 5 6 3 1 1 1 2 4 3 8 3 2 2 4 4 4 4 3 4 2 5 4 3 3 3 2 4 8 3 5 3 6 6 3 5
5 6 5 6 6 6 6 7 6 3 6 3 2 2 0 4 4 5 5 5 5 4 5 3 2 3 2 4 1 5 7 3 2 3 3 2 9 8 10 4 4 4 5
7 7 7 6 6 6 5 7 4 4 3 4 4 2 2 1 3 4 4 5 5 3 3 5 4 4 3 3 3 2 4 4 5 3 1 4 7 7 6 8 6 7 8
6 9 8 7 6 7 5 8 3 5 5 5 2 1 1 3 3 4 5 4 2 3 4 3 4 5 3 3 4 3 3 2 3 2 1 4 5 5 6 6 6 6 5
Wind_Direction
113 118 111 108 113 120 130 128 130 126 126 122 123 119 118 118 111 109 111 110 107 103 97 98 94 100 95 102 104 96 94 91 97 96 100 94 93 88 77 83 139 95 95
122 120 112 111 113 118 129 125 132 134 133 134 138 135 131 132 137 131 121 110 98 97 107 112 98 115 119 116 106 100 102 114 118 117 118 105 103 86 67 64 89 102 97
118 126 122 117 112 114 118 127 133 135 138 143 136 136 136 146 151 147 106 100 93 85 93 100 104 103 109 106 107 111 126 125 133 143 153 123 107 96 85 88 103 107 108
133 132 132 121 118 116 113 117 125 138 144 142 135 136 142 151 158 146 134 120 101 84 74 106 124 125 115 114 118 129 145 135 154 192 210 133 119 110 102 100 100 101 110
137 127 127 127 127 125 121 118 116 131 147 145 142 141 152 155 167 155 136 146 158 151 89 109 138 130 131 135 132 145 163 176 201 229 195 179 120 117 121 123 117 114 112
114 124 130 132 132 133 132 130 124 123 141 149 153 152 161 167 182 163 179 132 155 158 160 120 138 154 151 144 149 164 203 207 237 234 89 86 101 131 130 120 112 109 118
119 127 130 132 134 136 135 135 135 137 141 151 159 164 169 176 185 183 176 154 150 189 183 196 171 177 163 156 163 188 221 222 244 261 128 105 120 140 138 130 128 124 120
131 125 132 135 139 143 143 145 146 149 153 158 167 170 171 180 184 183 171 159 148 154 201 196 193 175 175 176 181 204 234 248 248 287 146 128 147 144 142 149 137 144 136
124 128 131 140 150 154 157 163 161 163 167 172 174 179 178 178 182 190 178 169 181 163 217 214 187 186 188 184 187 209 249 264 292 285 126 125 153 141 144 151 157 156 159
134 146 140 142 162 168 168 173 173 175 179 187 188 184 176 186 200 197 196 198 186 175 199 222 217 201 199 201 194 209 243 268 262 307 354 134 154 150 157 166 173 172 175
142 139 136 145 167 185 171 172 175 176 188 199 199 200 179 201 188 206 211 174 188 184 183 204 208 199 202 209 200 210 229 255 257 138 96 150 161 157 164 174 178 182 186
149 150 154 157 165 197 198 154 176 173 181 193 205 195 221 69 67 355 271 178 183 196 202 207 208 201 196 189 202 209 216 236 236 197 151 164 173 163 169 181 187 191 195
172 147 162 160 156 203 169 153 213 165 76 276 199 182 118 119 119 228 245 181 199 197 220 189 203 212 207 225 186 196 219 237 227 117 190 175 168 175 173 190 192 203 205
171 149 132 140 182 231 128 178 199 92 91 6 283 165 134 143 165 176 189 92 15 244 22 117 280 314 293 188 177 206 239 241 210 166 156 183 181 181 180 187 199 205 212
141 131 129 146 181 228 203 107 61 97 131 192 204 172 139 166 148 105 55 68 92 340 201 180 141 264 262 252 214 218 222 250 265 136 140 179 189 186 190 189 202 209 213
15 9 354 313 135 301 313 274 142 162 140 141 138 157 149 338 115 131 176 206 107 48 356 289 232 197 229 230 203 199 218 231 227 210 165 193 198 189 188 201 206 211 214
76 341 250 297 350 212 292 308 290 173 149 147 168 170 158 179 233 233 278 296 86 84 349 308 262 241 251 251 231 239 254 244 285 227 168 182 193 200 191 205 212 216 216
141 203 276 35 26 353 357 239 201 314 134 137 105 333 285 252 244 266 266 264 155 139 250 265 251 251 241 262 274 277 152 256 216 230 220 228 190 197 207 212 212 215 213
294 233 250 45 352 349 14 6 58 43 53 65 122 184 259 262 261 225 259 268 257 238 192 220 240 239 234 244 232 235 232 233 238 241 234 233 196 193 189 216 215 229 230
238 226 225 102 174 244 274 90 75 56 32 23 341 341 236 262 272 271 261 260 275 271 275 246 225 242 247 233 257 272 225 237 216 227 223 229 223 212 200 180 185 212 231
211 153 94 146 218 208 182 134 112 111 80 347 342 331 319 279 265 304 282 263 256 241 242 237 244 256 271 323 302 268 260 230 232 212 223 227 246 202 198 212 197 207 204
165 141 132 152 189 168 155 78 95 137 121 126 284 304 317 324 314 258 271 256 254 259 252 257 249 276 281 263 251 341 286 272 232 230 113 301 294 202 199 141 83 60 42
92 146 160 158 220 165 122 115 129 117 101 155 241 269 274 260 285 263 237 308 279 253 300 262 219 239 264 272 217 218 240 241 343 157 211 227 100 33 72 86 65 129 63
161 150 185 168 189 163 173 145 174 52 115 170 146 186 230 340 341 348 5 359 347 344 338 337 303 261 258 261 206 229 256 294 299 320 358 99 43 48 42 22 70 86 89
172 160 176 181 202 144 219 146 135 118 125 116 112 143 134 250 8 23 356 1 347 333 319 312 328 302 276 272 247 266 256 249 242 227 221 98 70 45 31 43 26 74 86
169 169 185 166 161 198 163 107 145 133 99 109 149 215 29 137 97 36 7 350 329 345 341 346 344 343 317 283 269 270 237 220 260 238 168 83 97 53 35 39 54 67 82